| time (UTC) | temp F | wind direction | speed MPH | gust MPH | rain 1hr in | rain 24hr in | rain mn in | humidity % | barometer mb |
| 20260507040007 | 48 | 360 | 2.0 | 9.0 | 0.02 | 0.57 | 0.00 | 91 | 1005.2 |
| 20260507034507 | 49 | 360 | 1.0 | 10.0 | 0.01 | 0.56 | 0.56 | 91 | 1005.2 |
| 20260507033004 | 49 | 360 | 0.0 | 9.0 | 0.02 | 0.56 | 0.56 | 92 | 1005.0 |
| 20260507031507 | 49 | 360 | 1.0 | 5.0 | 0.01 | 0.55 | 0.55 | 93 | 1004.7 |
| 20260507030016 | 50 | 360 | 2.0 | 8.0 | 0.02 | 0.55 | 0.55 | 93 | 1004.8 |
| 20260507024514 | 50 | 360 | 4.0 | 11.0 | 0.02 | 0.55 | 0.55 | 93 | 1004.6 |
| 20260507023015 | 51 | 360 | 4.0 | 15.0 | 0.01 | 0.54 | 0.54 | 93 | 1004.3 |
| 20260507021520 | 51 | 360 | 5.0 | 13.0 | 0.01 | 0.54 | 0.54 | 93 | 1004.3 |
| 20260507020014 | 52 | 360 | 3.0 | 10.0 | 0.00 | 0.52 | 0.52 | 92 | 1004.4 |
| 20260507014515 | 53 | 360 | 3.0 | 9.0 | 0.00 | 0.52 | 0.52 | 92 | 1004.1 |
| 20260507013016 | 54 | 360 | 2.0 | 11.0 | 0.00 | 0.52 | 0.52 | 92 | 1004.3 |
| 20260507011520 | 54 | 360 | 3.0 | 8.0 | 0.00 | 0.52 | 0.52 | 93 | 1004.0 |
| 20260507010025 | 54 | 360 | 1.0 | 6.0 | 0.00 | 0.52 | 0.52 | 95 | 1004.1 |
| 20260507004516 | 54 | 360 | 1.0 | 6.0 | 0.01 | 0.52 | 0.52 | 95 | 1004.0 |
| 20260507003026 | 55 | 360 | 2.0 | 8.0 | 0.01 | 0.52 | 0.52 | 94 | 1003.9 |
| 20260507001524 | 55 | 360 | 3.0 | 8.0 | 0.02 | 0.52 | 0.52 | 95 | 1003.7 |
| 20260507000019 | 56 | 355 | 1.0 | 5.0 | 0.03 | 0.52 | 0.52 | 95 | 1003.5 |
| 20260506234520 | 58 | 347 | 2.0 | 7.0 | 0.04 | 0.52 | 0.52 | 98 | 1003.4 |
| 20260506233020 | 59 | 153 | 7.0 | 13.0 | 0.05 | 0.52 | 0.52 | 98 | 1003.0 |
| 20260506231520 | 58 | 116 | 5.0 | 11.0 | 0.04 | 0.51 | 0.51 | 99 | 1003.2 |
| 20260506230021 | 58 | 130 | 2.0 | 4.0 | 0.03 | 0.50 | 0.50 | 98 | 1003.1 |
| 20260506224524 | 59 | 122 | 1.0 | 4.0 | 0.01 | 0.48 | 0.48 | 98 | 1003.4 |
| 20260506223023 | 59 | 104 | 2.0 | 7.0 | 0.00 | 0.47 | 0.47 | 98 | 1003.5 |
| 20260506221522 | 58 | 128 | 2.0 | 7.0 | 0.00 | 0.47 | 0.47 | 97 | 1003.7 |
| 20260506220020 | 58 | 128 | 2.0 | 7.0 | 0.01 | 0.48 | 0.47 | 97 | 1004.0 |
| 20260506214505 | 58 | 132 | 4.0 | 10.0 | 0.01 | 0.50 | 0.47 | 97 | 1004.3 |
| 20260506213005 | 59 | 139 | 7.0 | 12.0 | 0.01 | 0.50 | 0.47 | 96 | 1004.4 |
| 20260506211506 | 59 | 123 | 6.0 | 12.0 | 0.02 | 0.50 | 0.47 | 97 | 1004.4 |
| 20260506210004 | 59 | 124 | 7.0 | 11.0 | 0.01 | 0.49 | 0.46 | 98 | 1004.4 |
| 20260506204524 | 59 | 124 | 4.0 | 7.0 | 0.02 | 0.49 | 0.46 | 99 | 1004.5 |
| 20260506203028 | 59 | 113 | 1.0 | 3.0 | 0.04 | 0.49 | 0.46 | 99 | 1004.4 |
| 20260506201522 | 59 | 113 | 1.0 | 3.0 | 0.04 | 0.48 | 0.45 | 99 | 1004.4 |
| 20260506200021 | 59 | 113 | 2.0 | 3.0 | 0.06 | 0.48 | 0.45 | 99 | 1004.6 |
| 20260506194522 | 58 | 113 | 0.0 | 2.0 | 0.06 | 0.47 | 0.44 | 98 | 1004.9 |
| 20260506193026 | 58 | 113 | 1.0 | 2.0 | 0.05 | 0.45 | 0.42 | 98 | 1004.9 |
| 20260506191525 | 59 | 113 | 1.0 | 4.0 | 0.07 | 0.44 | 0.41 | 98 | 1004.9 |
| 20260506190024 | 58 | 117 | 1.0 | 4.0 | 0.12 | 0.42 | 0.39 | 97 | 1005.2 |
| 20260506184531 | 58 | 98 | 3.0 | 8.0 | 0.31 | 0.41 | 0.38 | 97 | 1005.3 |
| 20260506183024 | 58 | 112 | 3.0 | 7.0 | 0.36 | 0.40 | 0.37 | 97 | 1005.4 |
| 20260506181530 | 58 | 150 | 3.0 | 4.0 | 0.34 | 0.37 | 0.34 | 96 | 1006.2 |
| 20260506180028 | 59 | 144 | 2.0 | 5.0 | 0.27 | 0.30 | 0.27 | 94 | 1006.2 |
| 20260506174525 | 60 | 210 | 1.0 | 3.0 | 0.07 | 0.10 | 0.07 | 89 | 1006.0 |
| 20260506173028 | 61 | 101 | 0.0 | 2.0 | 0.01 | 0.04 | 0.01 | 87 | 1005.7 |
| 20260506171529 | 62 | 101 | 0.0 | 3.0 | 0.00 | 0.03 | 0.00 | 84 | 1006.0 |
| 20260506170025 | 62 | 101 | 0.0 | 1.0 | 0.00 | 0.03 | 0.00 | 86 | 1006.2 |
| 20260506164531 | 61 | 101 | 0.0 | 3.0 | 0.00 | 0.03 | 0.00 | 87 | 1006.6 |
| 20260506163026 | 61 | 93 | 1.0 | 3.0 | 0.00 | 0.03 | 0.00 | 85 | 1007.1 |
| 20260506161524 | 62 | 93 | 0.0 | 2.0 | 0.00 | 0.03 | 0.00 | 84 | 1007.2 |
| 20260506160030 | 62 | 93 | 0.0 | 2.0 | 0.00 | 0.03 | 0.00 | 83 | 1007.5 |
| 20260506154529 | 61 | 93 | 0.0 | 2.0 | 0.00 | 0.03 | 0.00 | 82 | 1007.5 |
| 20260506153025 | 62 | 93 | 0.0 | 4.0 | 0.00 | 0.03 | 0.00 | 80 | 1007.8 |
| 20260506151533 | 61 | 84 | 0.0 | 3.0 | 0.00 | 0.03 | 0.00 | 81 | 1007.9 |
| 20260506150026 | 61 | 84 | 0.0 | 1.0 | 0.00 | 0.03 | 0.00 | 81 | 1007.9 |
| 20260506144524 | 61 | 84 | 0.0 | 1.0 | 0.00 | 0.03 | 0.00 | 82 | 1007.9 |
| 20260506143028 | 60 | 84 | 0.0 | 2.0 | 0.00 | 0.03 | 0.00 | 82 | 1007.9 |
| 20260506141525 | 60 | 84 | 0.0 | 2.0 | 0.00 | 0.03 | 0.00 | 83 | 1007.8 |
| 20260506140029 | 60 | 84 | 0.0 | 2.0 | 0.00 | 0.03 | 0.00 | 83 | 1008.0 |
| 20260506134526 | 60 | 84 | 0.0 | 2.0 | 0.00 | 0.03 | 0.00 | 84 | 1008.2 |
| 20260506133041 | 59 | 60 | 1.0 | 3.0 | 0.00 | 0.03 | 0.00 | 85 | 1008.1 |
| 20260506131531 | 59 | 333 | 0.0 | 2.0 | 0.00 | 0.03 | 0.00 | 84 | 1008.4 |
| 20260506130028 | 59 | 336 | 0.0 | 3.0 | 0.00 | 0.03 | 0.00 | 84 | 1008.5 |
| 20260506124504 | 58 | 326 | 2.0 | 4.0 | 0.00 | 0.03 | 0.00 | 86 | 1008.6 |
| 20260506123007 | 58 | 44 | 1.0 | 3.0 | 0.00 | 0.03 | 0.00 | 88 | 1008.7 |
| 20260506121504 | 57 | 44 | 0.0 | 3.0 | 0.00 | 0.03 | 0.00 | 89 | 1008.8 |
| 20260506120007 | 57 | 352 | 1.0 | 3.0 | 0.00 | 0.03 | 0.00 | 90 | 1008.9 |
| 20260506114504 | 57 | 5 | 0.0 | 3.0 | 0.00 | 0.03 | 0.00 | 89 | 1009.0 |
| 20260506113009 | 56 | 11 | 1.0 | 3.0 | 0.00 | 0.03 | 0.00 | 90 | 1009.0 |
| 20260506111508 | 56 | 11 | 0.0 | 2.0 | 0.00 | 0.03 | 0.00 | 90 | 1008.9 |
| 20260506110007 | 56 | 11 | 0.0 | 3.0 | 0.00 | 0.03 | 0.00 | 92 | 1009.0 |
| 20260506104507 | 55 | 11 | 0.0 | 2.0 | 0.00 | 0.03 | 0.00 | 92 | 1009.0 |
| 20260506103004 | 55 | 11 | 1.0 | 5.0 | 0.00 | 0.03 | 0.00 | 92 | 1008.9 |
| 20260506101504 | 55 | 32 | 1.0 | 2.0 | 0.00 | 0.03 | 0.00 | 92 | 1008.8 |
| 20260506100004 | 55 | 32 | 0.0 | 2.0 | 0.00 | 0.03 | 0.00 | 92 | 1008.9 |
| 20260506094504 | 55 | 32 | 0.0 | 1.0 | 0.00 | 0.03 | 0.00 | 91 | 1008.6 |
| 20260506093009 | 56 | 32 | 0.0 | 1.0 | 0.00 | 0.03 | 0.00 | 90 | 1008.8 |
| 20260506091506 | 56 | 32 | 0.0 | 4.0 | 0.00 | 0.03 | 0.00 | 89 | 1008.6 |
| 20260506090004 | 57 | 94 | 0.0 | 2.0 | 0.00 | 0.03 | 0.00 | 88 | 1008.3 |
| 20260506084508 | 57 | 94 | 1.0 | 4.0 | 0.00 | 0.03 | 0.00 | 88 | 1008.2 |
| 20260506083028 | 58 | 74 | 0.0 | 2.0 | 0.00 | 0.03 | 0.00 | 88 | 1008.2 |
| 20260506081528 | 57 | 74 | 0.0 | 2.0 | 0.00 | 0.03 | 0.00 | 88 | 1008.2 |
| 20260506073026 | 56 | 304 | 0.0 | 4.0 | 0.00 | 0.03 | 0.00 | 92 | 1008.1 |
| 20260506071526 | 55 | 50 | 0.0 | 3.0 | 0.00 | 0.03 | 0.00 | 94 | 1008.2 |
| 20260506061529 | 56 | 9 | 0.0 | 4.0 | 0.00 | 0.03 | 0.00 | 93 | 1007.1 |
| 20260506044508 | 56 | 90 | 0.0 | 2.0 | 0.00 | 0.03 | 0.00 | 93 | 1007.4 |
| 20260506043004 | 56 | 90 | 1.0 | 3.0 | 0.00 | 0.03 | 0.00 | 93 | 1007.4 |
| 20260506041505 | 57 | 5 | 1.0 | 4.0 | 0.00 | 0.03 | 0.00 | 92 | 1007.6 |